STATION,STATION_NAME,DATE,DLY-PRCP-25PCTL,DLY-SNWD-25PCTL,DLY-SNOW-25PCTL,DLY-PRCP-50PCTL,DLY-SNWD-50PCTL,DLY-SNOW-50PCTL,DLY-PRCP-75PCTL,DLY-SNWD-75PCTL,DLY-SNOW-75PCTL,MTD-PRCP-NORMAL,MTD-SNOW-NORMAL,YTD-PRCP-NORMAL,YTD-SNOW-NORMAL,DLY-PRCP-PCTALL-GE001HI,DLY-PRCP-PCTALL-GE010HI,DLY-PRCP-PCTALL-GE050HI,DLY-PRCP-PCTALL-GE100HI,DLY-SNWD-PCTALL-GE001WI,DLY-SNWD-PCTALL-GE010WI,DLY-SNWD-PCTALL-GE003WI,DLY-SNWD-PCTALL-GE005WI,DLY-SNOW-PCTALL-GE001TI,DLY-SNOW-PCTALL-GE010TI,DLY-SNOW-PCTALL-GE100TI,DLY-SNOW-PCTALL-GE030TI,DLY-SNOW-PCTALL-GE050TI,DLY-TAVG-NORMAL,DLY-DUTR-NORMAL,DLY-TMAX-NORMAL,DLY-TMIN-NORMAL,DLY-TAVG-STDDEV,DLY-DUTR-STDDEV,DLY-TMAX-STDDEV,DLY-TMIN-STDDEV
GHCND:USC00353402,GOVERNMENT CAMP OR US,20100101,0.41,43,5.1,1.12,76,7.6,2.39,117,15.7,1.09,4.6,1.09,4.6,646,534,310,153,964,809,943,913,350,348,47,210,130,-1.1,-11.7,2.0,-4.1,-13.6,-14.7,-13.1,-13.5
GHCND:USC00353402,GOVERNMENT CAMP OR US,20100102,0.41,43,5.1,1.12,76,7.6,2.39,117,16.0,2.21,8.9,2.21,8.9,646,534,309,152,964,812,944,914,348,346,47,208,130,-1.0,-11.7,2.0,-4.1,-13.6,-14.7,-13.2,-13.5
GHCND:USC00353402,GOVERNMENT CAMP OR US,20100103,0.41,46,5.1,1.12,76,7.6,2.39,119,16.0,3.30,13.2,3.30,13.2,646,534,308,152,964,814,945,915,346,344,47,207,129,-0.9,-11.7,2.1,-4.0,-13.6,-14.7,-13.2,-13.5
GHCND:USC00353402,GOVERNMENT CAMP OR US,20100104,0.41,46,5.1,1.12,76,7.6,2.39,119,16.0,4.42,17.3,4.42,17.3,646,534,307,151,964,817,945,916,344,342,48,205,129,-0.9,-11.7,2.1,-3.9,-13.7,-14.7,-13.2,-13.6
GHCND:USC00353402,GOVERNMENT CAMP OR US,20100105,0.41,46,5.1,1.09,79,7.6,2.36,119,16.0,5.51,21.3,5.51,21.3,645,534,305,151,964,819,946,917,342,340,48,203,129,-0.9,-11.7,2.2,-3.9,-13.7,-14.7,-13.2,-13.6
GHCND:USC00353402,GOVERNMENT CAMP OR US,20100106,0.41,46,5.1,1.09,79,7.6,2.36,122,16.0,6.63,25.4,6.63,25.4,644,533,304,150,963,821,946,918,340,337,49,202,129,-0.8,-11.7,2.2,-3.8,-13.7,-14.7,-13.2,-13.6
GHCND:USC00353402,GOVERNMENT CAMP OR US,20100107,0.41,46,5.1,1.09,79,7.6,2.36,122,16.0,7.72,29.7,7.72,29.7,644,533,302,149,963,823,946,918,338,335,49,200,129,-0.8,-11.7,2.2,-3.8,-13.7,-14.7,-13.2,-13.6
GHCND:USC00353402,GOVERNMENT CAMP OR US,20100108,0.41,48,4.8,1.07,79,7.6,2.36,122,16.0,8.81,33.8,8.81,33.8,643,532,300,148,962,824,946,918,336,333,49,198,128,-0.7,-11.8,2.3,-3.7,-13.7,-14.7,-13.3,-13.7
GHCND:USC00353402,GOVERNMENT CAMP OR US,20100109,0.41,48,4.8,1.07,79,7.6,2.34,124,16.0,9.93,38.1,9.93,38.1,641,530,298,147,962,825,946,919,334,330,50,196,128,-0.7,-11.8,2.3,-3.7,-13.8,-14.7,-13.3,-13.7
GHCND:USC00353402,GOVERNMENT CAMP OR US,20100110,0.41,48,4.8,1.07,79,7.6,2.34,124,16.0,11.05,42.4,11.05,42.4,640,529,296,146,961,826,946,919,332,328,50,194,128,-0.6,-11.8,2.4,-3.7,-13.8,-14.7,-13.3,-13.7
GHCND:USC00353402,GOVERNMENT CAMP OR US,20100111,0.41,48,4.8,1.04,81,7.6,2.34,124,16.0,12.17,46.7,12.17,46.7,638,528,294,145,961,827,946,919,330,326,50,192,128,-0.6,-11.8,2.4,-3.6,-13.8,-14.7,-13.3,-13.8
GHCND:USC00353402,GOVERNMENT CAMP OR US,20100112,0.41,48,4.8,1.04,81,7.6,2.31,127,16.0,13.23,50.8,13.23,50.8,637,527,292,143,961,828,946,919,328,324,49,190,127,-0.6,-11.8,2.4,-3.6,-13.8,-14.7,-13.3,-13.8
GHCND:USC00353402,GOVERNMENT CAMP OR US,20100113,0.41,48,4.6,1.04,81,7.6,2.31,127,16.0,14.27,55.1,14.27,55.1,635,526,291,142,960,828,945,919,326,322,49,189,127,-0.5,-11.8,2.5,-3.5,-13.9,-14.7,-13.3,-13.8
GHCND:USC00353402,GOVERNMENT CAMP OR US,20100114,0.41,48,4.6,1.02,81,7.6,2.29,130,16.0,15.32,58.9,15.32,58.9,633,525,288,141,960,829,945,919,325,321,48,187,126,-0.5,-11.8,2.6,-3.5,-13.8,-14.7,-13.3,-13.8
GHCND:USC00353402,GOVERNMENT CAMP OR US,20100115,0.41,48,4.6,1.02,81,7.6,2.29,130,16.0,16.36,63.2,16.36,63.2,631,523,286,139,960,829,945,919,324,319,48,185,125,-0.4,-11.8,2.6,-3.4,-13.8,-14.7,-13.3,-13.8
GHCND:USC00353402,GOVERNMENT CAMP OR US,20100116,0.41,48,4.3,1.02,81,7.6,2.26,132,16.0,17.40,67.1,17.40,67.1,630,522,284,138,960,829,946,919,322,317,47,184,125,-0.4,-11.7,2.6,-3.4,-13.8,-14.7,-13.3,-13.8
GHCND:USC00353402,GOVERNMENT CAMP OR US,20100117,0.41,48,4.3,1.02,81,7.6,2.26,132,16.0,18.42,71.1,18.42,71.1,628,521,282,136,961,829,946,919,321,316,46,182,124,-0.4,-11.7,2.6,-3.4,-13.8,-14.6,-13.3,-13.8
GHCND:USC00353402,GOVERNMENT CAMP OR US,20100118,0.41,48,4.3,0.99,84,7.6,2.24,135,16.0,19.46,75.2,19.46,75.2,626,520,280,134,961,829,946,919,320,315,46,181,123,-0.3,-11.7,2.7,-3.4,-13.8,-14.6,-13.2,-13.7
GHCND:USC00353402,GOVERNMENT CAMP OR US,20100119,0.41,48,4.1,0.99,84,7.6,2.21,135,16.0,20.50,79.5,20.50,79.5,625,519,278,132,961,829,946,919,319,314,45,180,123,-0.3,-11.7,2.7,-3.4,-13.8,-14.6,-13.2,-13.7
GHCND:USC00353402,GOVERNMENT CAMP OR US,20100120,0.41,48,4.1,0.99,84,7.6,2.21,137,16.0,21.51,83.6,21.51,83.6,624,519,276,131,961,829,946,919,319,314,45,179,123,-0.3,-11.7,2.7,-3.3,-13.8,-14.6,-13.2,-13.7
GHCND:USC00353402,GOVERNMENT CAMP OR US,20100121,0.41,48,4.1,0.97,84,7.6,2.18,137,16.0,22.50,87.6,22.50,87.6,623,519,274,129,961,829,946,919,318,313,45,178,122,-0.3,-11.7,2.8,-3.3,-13.7,-14.6,-13.2,-13.7
GHCND:USC00353402,GOVERNMENT CAMP OR US,20100122,0.41,48,3.8,0.97,84,7.6,2.18,140,16.0,23.47,91.4,23.47,91.4,623,519,273,128,962,830,946,918,318,313,44,178,122,-0.3,-11.7,2.8,-3.3,-13.7,-14.6,-13.2,-13.7
GHCND:USC00353402,GOVERNMENT CAMP OR US,20100123,0.38,48,3.8,0.97,84,7.6,2.18,140,16.0,24.41,95.5,24.41,95.5,622,519,272,127,962,830,945,918,318,313,44,177,121,-0.3,-11.6,2.8,-3.3,-13.7,-14.5,-13.1,-13.7
GHCND:USC00353402,GOVERNMENT CAMP OR US,20100124,0.38,48,3.6,0.97,86,7.6,2.16,142,15.7,25.37,99.6,25.37,99.6,621,518,271,125,962,830,945,918,318,312,43,176,120,-0.3,-11.6,2.8,-3.3,-13.7,-14.5,-13.1,-13.7
GHCND:USC00353402,GOVERNMENT CAMP OR US,20100125,0.38,48,3.6,0.97,86,7.6,2.16,142,15.5,26.31,103.6,26.31,103.6,620,518,269,124,962,831,945,917,318,312,42,175,119,-0.2,-11.6,2.8,-3.3,-13.7,-14.5,-13.1,-13.7
GHCND:USC00353402,GOVERNMENT CAMP OR US,20100126,0.38,48,3.6,0.97,86,7.6,2.16,142,15.5,27.25,107.4,27.25,107.4,619,518,268,123,962,831,944,916,318,312,42,174,119,-0.2,-11.6,2.9,-3.3,-13.7,-14.5,-13.1,-13.7
GHCND:USC00353402,GOVERNMENT CAMP OR US,20100127,0.38,48,3.3,0.94,86,7.6,2.13,145,15.2,28.17,111.3,28.17,111.3,619,518,266,122,962,831,943,916,318,312,41,174,118,-0.2,-11.5,2.9,-3.4,-13.7,-14.5,-13.1,-13.7
GHCND:USC00353402,GOVERNMENT CAMP OR US,20100128,0.38,48,3.3,0.94,86,7.6,2.13,145,15.0,29.06,115.1,29.06,115.1,618,517,265,121,962,831,943,915,318,312,40,174,118,-0.2,-11.5,2.9,-3.4,-13.7,-14.5,-13.1,-13.7
GHCND:USC00353402,GOVERNMENT CAMP OR US,20100129,0.38,48,3.3,0.94,86,7.6,2.13,147,15.0,29.95,118.6,29.95,118.6,617,517,264,120,962,831,942,914,318,313,40,174,117,-0.2,-11.4,2.9,-3.4,-13.6,-14.5,-13.1,-13.6
GHCND:USC00353402,GOVERNMENT CAMP OR US,20100130,0.38,48,3.0,0.94,86,7.6,2.13,147,14.7,30.81,122.2,30.81,122.2,616,516,262,119,962,830,941,912,318,312,39,173,117,-0.2,-11.4,2.9,-3.4,-13.6,-14.5,-13.1,-13.6
GHCND:USC00353402,GOVERNMENT CAMP OR US,20100131,0.38,51,3.0,0.94,89,7.6,2.11,147,14.5,31.70,126.0,31.70,126.0,614,515,261,118,961,830,940,911,319,313,38,173,116,-0.2,-11.4,3.0,-3.4,-13.6,-14.5,-13.1,-13.6
GHCND:USC00353402,GOVERNMENT CAMP OR US,20100201,0.38,51,3.0,0.94,89,7.6,2.11,150,14.5,0.89,3.6,32.59,129.5,613,514,259,117,961,829,939,910,318,312,38,172,115,-0.2,-11.3,3.0,-3.4,-13.6,-14.5,-13.1,-13.6
GHCND:USC00353402,GOVERNMENT CAMP OR US,20100202,0.38,51,2.8,0.91,89,7.6,2.08,150,14.2,1.80,7.4,33.50,133.4,612,512,257,115,960,829,938,909,318,312,37,172,114,-0.2,-11.3,3.0,-3.5,-13.7,-14.5,-13.1,-13.7
GHCND:USC00353402,GOVERNMENT CAMP OR US,20100203,0.38,51,2.8,0.91,89,7.6,2.08,150,14.2,2.72,11.2,34.42,137.2,610,511,255,113,959,828,937,907,317,312,36,171,113,-0.2,-11.2,3.1,-3.5,-13.7,-14.6,-13.1,-13.7
GHCND:USC00353402,GOVERNMENT CAMP OR US,20100204,0.38,51,2.8,0.91,89,7.6,2.06,150,14.2,3.66,15.0,35.36,141.0,610,510,254,112,958,827,935,906,317,312,36,171,112,-0.2,-11.2,3.1,-3.5,-13.7,-14.6,-13.1,-13.7
GHCND:USC00353402,GOVERNMENT CAMP OR US,20100205,0.38,51,2.8,0.91,89,7.6,2.06,150,14.0,4.60,18.5,36.30,144.5,609,510,252,110,958,826,934,905,317,312,35,171,111,-0.2,-11.1,3.1,-3.6,-13.7,-14.6,-13.1,-13.7
GHCND:USC00353402,GOVERNMENT CAMP OR US,20100206,0.38,51,2.8,0.91,89,7.6,2.03,152,14.0,5.56,22.1,37.26,148.1,609,509,251,109,957,826,933,903,317,312,34,171,111,-0.2,-11.1,3.1,-3.6,-13.7,-14.6,-13.1,-13.7
GHCND:USC00353402,GOVERNMENT CAMP OR US,20100207,0.36,51,2.5,0.91,89,7.6,2.03,152,14.0,6.50,25.7,38.20,151.6,610,509,250,108,956,825,932,902,317,313,34,171,110,-0.2,-11.1,3.2,-3.6,-13.7,-14.6,-13.0,-13.7
GHCND:USC00353402,GOVERNMENT CAMP OR US,20100208,0.36,53,2.5,0.91,89,7.6,2.01,152,13.7,7.44,29.2,39.14,155.2,610,509,250,107,955,824,930,901,317,313,34,171,109,-0.2,-11.0,3.2,-3.6,-13.6,-14.5,-13.0,-13.7
GHCND:USC00353402,GOVERNMENT CAMP OR US,20100209,0.36,53,2.5,0.91,89,7.6,2.01,152,13.7,8.36,32.8,40.06,158.8,611,509,249,105,954,824,929,899,317,313,33,170,108,-0.2,-10.9,3.2,-3.6,-13.6,-14.5,-13.0,-13.7
GHCND:USC00353402,GOVERNMENT CAMP OR US,20100210,0.36,53,2.5,0.91,89,7.6,1.98,152,13.7,9.27,36.3,40.97,162.3,612,509,248,104,952,823,927,898,317,313,33,170,107,-0.2,-10.9,3.3,-3.6,-13.7,-14.5,-13.0,-13.7
GHCND:USC00353402,GOVERNMENT CAMP OR US,20100211,0.36,53,2.5,0.89,91,7.6,1.98,152,13.5,10.19,39.9,41.88,165.9,614,510,248,103,951,822,925,896,316,313,33,169,106,-0.2,-10.8,3.3,-3.7,-13.7,-14.5,-13.0,-13.7
GHCND:USC00353402,GOVERNMENT CAMP OR US,20100212,0.36,53,2.5,0.89,91,7.6,1.96,152,13.5,11.10,43.4,42.80,169.4,616,511,247,102,950,822,923,894,316,313,33,169,105,-0.2,-10.8,3.3,-3.7,-13.7,-14.5,-13.0,-13.8
GHCND:USC00353402,GOVERNMENT CAMP OR US,20100213,0.36,53,2.5,0.89,91,7.6,1.96,152,13.5,11.96,47.0,43.66,173.0,618,512,247,101,948,821,921,891,316,313,32,169,104,-0.2,-10.7,3.4,-3.7,-13.7,-14.5,-13.0,-13.8
GHCND:USC00353402,GOVERNMENT CAMP OR US,20100214,0.36,53,2.5,0.89,91,7.6,1.96,152,13.2,12.83,50.3,44.53,176.3,620,513,247,100,946,821,919,889,316,313,32,169,104,-0.1,-10.7,3.4,-3.7,-13.7,-14.5,-13.1,-13.8
GHCND:USC00353402,GOVERNMENT CAMP OR US,20100215,0.36,53,2.5,0.89,91,7.6,1.93,152,13.2,13.64,53.6,45.34,179.6,622,513,246,99,944,820,916,887,316,312,32,168,103,-0.1,-10.7,3.4,-3.7,-13.8,-14.5,-13.1,-13.9
GHCND:USC00353402,GOVERNMENT CAMP OR US,20100216,0.36,56,2.5,0.89,91,7.6,1.93,152,13.2,14.43,56.6,46.13,182.6,623,513,245,98,942,820,913,884,315,312,32,168,102,-0.1,-10.6,3.5,-3.7,-13.8,-14.5,-13.1,-13.9
GHCND:USC00353402,GOVERNMENT CAMP OR US,20100217,0.33,56,2.5,0.89,91,7.6,1.90,152,13.0,15.21,59.9,46.91,185.9,624,514,245,97,940,819,911,882,315,312,31,167,101,-0.1,-10.6,3.6,-3.7,-13.8,-14.6,-13.1,-14.0
GHCND:USC00353402,GOVERNMENT CAMP OR US,20100218,0.33,56,2.5,0.89,91,7.6,1.90,152,13.0,16.00,63.0,47.70,189.0,625,514,244,96,938,818,908,879,314,311,31,167,100,0.0,-10.6,3.6,-3.7,-13.8,-14.6,-13.1,-14.1
GHCND:USC00353402,GOVERNMENT CAMP OR US,20100219,0.33,56,2.5,0.89,91,7.6,1.88,152,13.0,16.79,66.3,48.49,192.3,625,513,243,94,936,817,905,876,313,310,31,166,99,0.0,-10.5,3.7,-3.6,-13.9,-14.6,-13.1,-14.1
GHCND:USC00353402,GOVERNMENT CAMP OR US,20100220,0.33,56,2.5,0.89,91,7.6,1.85,152,12.7,17.60,69.6,49.30,195.6,625,513,241,92,934,816,902,873,312,309,30,165,99,0.1,-10.4,3.7,-3.6,-13.9,-14.6,-13.1,-14.1
GHCND:USC00353402,GOVERNMENT CAMP OR US,20100221,0.33,56,2.5,0.89,91,7.6,1.83,152,12.7,18.39,72.9,50.09,198.9,625,512,239,90,932,815,899,871,310,307,30,164,98,0.1,-10.4,3.8,-3.6,-13.9,-14.6,-13.1,-14.2
GHCND:USC00353402,GOVERNMENT CAMP OR US,20100222,0.33,56,2.5,0.86,91,7.6,1.80,152,12.7,19.18,75.9,50.88,201.9,625,511,237,87,930,813,896,868,308,305,30,163,97,0.2,-10.4,3.8,-3.6,-13.9,-14.6,-13.1,-14.2
GHCND:USC00353402,GOVERNMENT CAMP OR US,20100223,0.33,53,2.5,0.86,91,7.6,1.80,152,12.7,19.94,79.2,51.64,205.2,625,510,235,85,928,812,893,865,306,303,30,161,96,0.2,-10.4,3.9,-3.5,-14.0,-14.5,-13.1,-14.3
GHCND:USC00353402,GOVERNMENT CAMP OR US,20100224,0.33,53,2.5,0.86,91,7.6,1.78,152,12.7,20.73,82.3,52.43,208.3,624,509,232,83,926,810,890,861,304,301,30,160,94,0.2,-10.3,3.9,-3.5,-14.0,-14.5,-13.1,-14.3
GHCND:USC00353402,GOVERNMENT CAMP OR US,20100225,0.33,53,2.5,0.86,91,7.6,1.75,152,12.7,21.49,85.3,53.19,211.3,624,508,230,81,924,808,887,858,302,298,29,158,93,0.3,-10.3,4.0,-3.4,-14.1,-14.5,-13.2,-14.4
GHCND:USC00353402,GOVERNMENT CAMP OR US,20100226,0.33,53,2.5,0.84,91,7.4,1.73,152,12.7,22.28,88.6,53.97,214.6,623,507,228,79,922,806,884,855,299,296,29,156,91,0.3,-10.3,4.1,-3.4,-14.1,-14.5,-13.2,-14.4
GHCND:USC00353402,GOVERNMENT CAMP OR US,20100227,0.33,53,2.5,0.84,91,7.4,1.70,152,12.7,23.04,91.7,54.74,217.7,624,506,226,76,921,804,881,852,297,294,29,155,90,0.4,-10.3,4.2,-3.3,-14.1,-14.5,-13.1,-14.4
GHCND:USC00353402,GOVERNMENT CAMP OR US,20100228,0.30,53,2.5,0.84,91,7.4,1.70,150,12.7,23.80,94.7,55.50,220.7,624,506,224,74,919,802,877,850,295,292,28,153,88,0.4,-10.3,4.2,-3.3,-14.1,-14.5,-13.1,-14.5
GHCND:USC00353402,GOVERNMENT CAMP OR US,20100301,0.30,51,2.5,0.84,91,7.1,1.68,150,12.7,0.76,3.3,56.26,224.0,627,508,222,71,915,798,871,844,293,289,28,151,87,0.5,-10.3,4.3,-3.2,-14.1,-14.5,-13.1,-14.5
GHCND:USC00353402,GOVERNMENT CAMP OR US,20100302,0.30,51,2.5,0.84,89,7.1,1.65,152,12.7,1.52,6.4,57.02,227.1,628,508,221,70,913,795,868,841,293,289,27,151,86,0.6,-10.3,4.3,-3.2,-14.1,-14.5,-13.1,-14.6
GHCND:USC00353402,GOVERNMENT CAMP OR US,20100303,0.30,48,2.5,0.84,89,6.9,1.65,152,12.7,2.26,9.4,57.76,230.1,630,510,221,69,911,793,865,838,292,288,27,150,85,0.7,-10.3,4.4,-3.1,-14.1,-14.5,-13.1,-14.6
GHCND:USC00353402,GOVERNMENT CAMP OR US,20100304,0.30,48,2.5,0.81,89,6.9,1.65,152,12.7,2.97,12.4,58.47,233.2,631,510,221,68,909,790,862,836,291,287,27,149,85,0.7,-10.3,4.5,-3.1,-14.1,-14.5,-13.1,-14.6
GHCND:USC00353402,GOVERNMENT CAMP OR US,20100305,0.30,48,2.5,0.81,89,6.9,1.63,152,12.7,3.68,15.5,59.18,236.2,632,511,220,67,908,788,859,833,290,286,26,148,84,0.8,-10.3,4.6,-3.0,-14.1,-14.5,-13.1,-14.6
GHCND:USC00353402,GOVERNMENT CAMP OR US,20100306,0.30,46,2.5,0.81,86,6.6,1.63,152,12.7,4.37,18.3,59.87,239.0,633,512,219,66,906,785,856,830,289,285,26,146,83,0.8,-10.3,4.6,-2.9,-14.1,-14.4,-13.1,-14.7
GHCND:USC00353402,GOVERNMENT CAMP OR US,20100307,0.30,46,2.5,0.81,86,6.6,1.60,152,12.7,5.03,21.3,60.53,242.1,634,512,218,64,904,781,853,827,288,284,26,145,83,0.9,-10.3,4.7,-2.8,-14.1,-14.4,-13.1,-14.7
GHCND:USC00353402,GOVERNMENT CAMP OR US,20100308,0.30,46,2.5,0.81,84,6.6,1.60,152,12.7,5.66,24.1,61.16,244.9,635,513,216,63,902,778,850,824,288,283,25,144,82,1.0,-10.3,4.7,-2.8,-14.2,-14.4,-13.1,-14.7
GHCND:USC00353402,GOVERNMENT CAMP OR US,20100309,0.30,43,2.5,0.79,84,6.4,1.60,152,12.7,6.32,26.9,61.82,247.7,636,514,215,63,899,774,847,821,287,282,25,143,81,1.1,-10.3,4.8,-2.7,-14.2,-14.4,-13.1,-14.7
GHCND:USC00353402,GOVERNMENT CAMP OR US,20100310,0.30,43,2.5,0.79,84,6.4,1.57,152,12.7,6.96,29.5,62.46,250.2,636,515,214,62,897,770,843,817,286,281,24,143,81,1.1,-10.3,4.9,-2.6,-14.2,-14.4,-13.1,-14.8
GHCND:USC00353402,GOVERNMENT CAMP OR US,20100311,0.30,43,2.5,0.79,81,6.1,1.57,152,12.7,7.62,32.0,63.12,252.7,637,515,213,61,895,766,840,814,285,281,24,142,80,1.2,-10.3,4.9,-2.6,-14.2,-14.4,-13.1,-14.8
GHCND:USC00353402,GOVERNMENT CAMP OR US,20100312,0.30,41,2.5,0.79,81,6.1,1.55,152,12.4,8.25,34.5,63.75,255.3,637,516,212,60,892,762,837,810,284,280,24,141,79,1.3,-10.3,5.0,-2.5,-14.2,-14.4,-13.1,-14.8
GHCND:USC00353402,GOVERNMENT CAMP OR US,20100313,0.30,41,2.5,0.79,79,6.1,1.55,152,12.4,8.94,37.1,64.44,257.8,637,516,211,59,890,757,834,806,284,280,23,140,78,1.3,-10.3,5.1,-2.4,-14.2,-14.4,-13.0,-14.8
GHCND:USC00353402,GOVERNMENT CAMP OR US,20100314,0.30,38,2.5,0.79,79,5.8,1.55,152,12.4,9.63,39.6,65.13,260.3,637,517,210,59,888,752,832,803,283,279,23,139,77,1.4,-10.3,5.1,-2.3,-14.2,-14.4,-13.0,-14.8
GHCND:USC00353402,GOVERNMENT CAMP OR US,20100315,0.30,38,2.5,0.79,76,5.8,1.55,152,12.2,10.34,42.2,65.84,262.9,638,518,210,58,886,747,829,799,283,279,23,139,76,1.4,-10.3,5.2,-2.3,-14.2,-14.4,-13.0,-14.8
GHCND:USC00353402,GOVERNMENT CAMP OR US,20100316,0.30,38,2.5,0.79,76,5.8,1.55,152,12.2,11.05,45.0,66.55,265.7,638,519,209,58,884,741,826,795,282,278,22,138,75,1.5,-10.3,5.2,-2.2,-14.2,-14.4,-13.0,-14.9
GHCND:USC00353402,GOVERNMENT CAMP OR US,20100317,0.30,36,2.5,0.79,74,5.8,1.55,152,12.2,11.79,47.5,67.28,268.2,639,520,209,58,882,736,824,791,281,278,22,138,75,1.6,-10.3,5.3,-2.2,-14.2,-14.3,-12.9,-14.9
GHCND:USC00353402,GOVERNMENT CAMP OR US,20100318,0.30,36,2.5,0.76,74,5.8,1.55,152,11.9,12.50,50.0,68.00,270.8,640,520,208,57,879,730,821,787,280,277,22,137,74,1.6,-10.3,5.4,-2.1,-14.2,-14.3,-12.9,-14.9
GHCND:USC00353402,GOVERNMENT CAMP OR US,20100319,0.30,33,2.5,0.76,71,5.8,1.52,152,11.9,13.21,52.6,68.71,273.3,641,521,208,58,877,724,818,783,280,276,22,137,73,1.7,-10.3,5.4,-2.1,-14.2,-14.3,-12.9,-14.9
GHCND:USC00353402,GOVERNMENT CAMP OR US,20100320,0.30,33,2.5,0.76,69,5.8,1.52,150,11.9,13.92,55.1,69.42,275.8,642,522,207,58,874,717,816,779,279,276,21,137,72,1.7,-10.3,5.5,-2.0,-14.2,-14.3,-12.9,-14.9
GHCND:USC00353402,GOVERNMENT CAMP OR US,20100321,0.30,33,2.5,0.76,69,5.8,1.52,150,11.7,14.60,57.9,70.10,278.6,643,522,207,58,872,710,813,775,279,275,21,137,72,1.8,-10.3,5.6,-1.9,-14.2,-14.3,-12.9,-14.9
GHCND:USC00353402,GOVERNMENT CAMP OR US,20100322,0.30,30,2.5,0.76,66,5.8,1.52,150,11.7,15.32,60.5,70.82,281.2,645,523,207,58,869,703,810,770,278,275,21,137,71,1.8,-10.3,5.6,-1.9,-14.2,-14.2,-12.8,-14.9
GHCND:USC00353402,GOVERNMENT CAMP OR US,20100323,0.30,30,2.5,0.76,66,5.8,1.52,147,11.7,16.03,63.0,71.53,283.7,646,524,207,59,866,696,807,766,278,276,21,137,71,1.9,-10.3,5.7,-1.8,-14.2,-14.2,-12.8,-15.0
GHCND:USC00353402,GOVERNMENT CAMP OR US,20100324,0.30,30,2.5,0.76,64,5.8,1.52,147,11.4,16.71,65.5,72.21,286.3,648,525,207,59,863,689,804,761,279,276,20,137,70,1.9,-10.3,5.7,-1.8,-14.1,-14.2,-12.8,-15.0
GHCND:USC00353402,GOVERNMENT CAMP OR US,20100325,0.30,28,2.5,0.74,64,5.8,1.52,145,11.4,17.40,68.1,72.90,288.8,649,526,207,59,859,682,801,757,278,276,20,137,70,2.0,-10.3,5.8,-1.7,-14.1,-14.2,-12.8,-15.0
GHCND:USC00353402,GOVERNMENT CAMP OR US,20100326,0.30,28,2.5,0.74,61,6.1,1.52,145,11.2,18.11,70.6,73.61,291.3,651,527,207,60,855,674,797,752,278,276,20,137,69,2.1,-10.3,5.8,-1.7,-14.1,-14.1,-12.7,-15.0
GHCND:USC00353402,GOVERNMENT CAMP OR US,20100327,0.30,28,2.5,0.74,61,6.1,1.52,142,11.2,18.82,73.2,74.32,293.9,652,528,206,60,851,666,793,746,278,276,20,137,69,2.1,-10.3,5.9,-1.7,-14.1,-14.1,-12.7,-15.0
GHCND:USC00353402,GOVERNMENT CAMP OR US,20100328,0.30,25,2.5,0.74,58,6.1,1.50,142,11.2,19.53,75.7,75.03,296.4,653,528,206,60,847,658,789,740,277,275,20,137,68,2.2,-10.2,5.9,-1.6,-14.1,-14.1,-12.7,-15.0
GHCND:USC00353402,GOVERNMENT CAMP OR US,20100329,0.30,25,2.5,0.74,58,6.4,1.50,140,10.9,20.24,78.2,75.74,299.0,653,527,205,60,842,649,784,734,276,273,20,136,68,2.2,-10.2,6.0,-1.6,-14.1,-14.1,-12.6,-15.1
GHCND:USC00353402,GOVERNMENT CAMP OR US,20100330,0.30,25,2.5,0.74,56,6.4,1.50,137,10.9,20.96,80.5,76.45,301.2,653,526,204,60,837,641,780,727,274,272,20,136,67,2.3,-10.2,6.1,-1.6,-14.1,-14.0,-12.6,-15.1
GHCND:USC00353402,GOVERNMENT CAMP OR US,20100331,0.30,25,2.5,0.74,56,6.4,1.50,137,10.9,21.69,83.1,77.19,303.8,652,525,203,60,831,632,774,720,271,269,20,135,66,2.3,-10.2,6.1,-1.5,-14.1,-14.0,-12.6,-15.1
GHCND:USC00353402,GOVERNMENT CAMP OR US,20100401,0.30,23,2.5,0.71,56,6.6,1.47,135,10.7,0.71,2.5,77.90,306.3,652,524,201,59,825,623,769,712,269,267,20,134,65,2.3,-10.1,6.2,-1.5,-14.1,-13.9,-12.5,-15.1
GHCND:USC00353402,GOVERNMENT CAMP OR US,20100402,0.30,23,2.5,0.71,53,6.6,1.47,132,10.7,1.40,4.8,78.59,308.6,651,523,200,59,819,614,763,705,266,264,20,133,64,2.4,-10.1,6.2,-1.4,-14.0,-13.9,-12.4,-15.1
GHCND:USC00353402,GOVERNMENT CAMP OR US,20100403,0.28,23,2.5,0.71,53,6.6,1.47,130,10.7,2.08,7.4,79.27,311.2,651,521,199,58,812,604,757,697,263,262,19,132,62,2.4,-10.1,6.3,-1.4,-14.0,-13.9,-12.4,-15.1
GHCND:USC00353402,GOVERNMENT CAMP OR US,20100404,0.28,23,2.5,0.71,53,6.9,1.47,130,10.4,2.77,9.7,79.96,313.4,650,520,197,58,805,595,750,688,260,259,19,131,61,2.5,-10.0,6.4,-1.4,-14.0,-13.9,-12.4,-15.1
GHCND:USC00353402,GOVERNMENT CAMP OR US,20100405,0.28,20,2.5,0.71,51,6.9,1.45,127,10.4,3.45,11.9,80.65,315.7,649,518,196,57,798,585,743,680,257,256,19,130,60,2.6,-10.0,6.4,-1.3,-13.9,-13.8,-12.3,-15.1
GHCND:USC00353402,GOVERNMENT CAMP OR US,20100406,0.28,20,2.5,0.71,51,6.9,1.45,124,10.4,4.11,14.5,81.31,318.3,648,517,195,57,791,574,736,671,254,252,19,129,59,2.6,-9.9,6.5,-1.3,-13.9,-13.8,-12.3,-15.1
GHCND:USC00353402,GOVERNMENT CAMP OR US,20100407,0.28,20,2.5,0.69,51,7.1,1.45,122,10.2,4.80,16.8,81.99,320.5,647,516,194,56,783,564,729,662,250,249,18,127,58,2.7,-9.9,6.6,-1.3,-13.9,-13.8,-12.3,-15.1
GHCND:USC00353402,GOVERNMENT CAMP OR US,20100408,0.28,20,2.5,0.69,51,7.1,1.45,119,10.2,5.46,19.1,82.65,322.8,647,514,193,56,775,554,720,652,247,246,18,126,56,2.7,-9.8,6.7,-1.3,-13.9,-13.8,-12.2,-15.1
GHCND:USC00353402,GOVERNMENT CAMP OR US,20100409,0.28,20,2.5,0.69,48,7.1,1.45,117,10.2,6.15,21.3,83.34,325.1,646,513,192,56,766,543,712,643,243,242,18,125,55,2.8,-9.8,6.8,-1.2,-13.9,-13.7,-12.2,-15.1
GHCND:USC00353402,GOVERNMENT CAMP OR US,20100410,0.28,18,2.5,0.69,48,7.4,1.45,114,10.2,6.81,23.6,84.00,327.4,645,511,190,55,757,532,702,633,240,238,17,123,54,2.8,-9.7,6.9,-1.2,-13.8,-13.7,-12.2,-15.1
GHCND:USC00353402,GOVERNMENT CAMP OR US,20100411,0.28,18,2.5,0.69,48,7.4,1.42,114,10.2,7.47,25.9,84.66,329.7,643,509,189,55,747,521,692,622,235,234,17,121,52,2.9,-9.7,6.9,-1.2,-13.8,-13.7,-12.2,-15.1
GHCND:USC00353402,GOVERNMENT CAMP OR US,20100412,0.28,18,2.5,0.69,48,7.4,1.42,112,10.2,8.10,28.2,85.29,332.0,642,506,187,54,736,510,681,611,231,229,17,119,51,2.9,-9.6,7.1,-1.1,-13.8,-13.7,-12.1,-15.1
GHCND:USC00353402,GOVERNMENT CAMP OR US,20100413,0.28,18,2.5,0.66,46,7.4,1.42,109,10.2,8.74,30.2,85.93,334.0,640,504,185,54,725,498,670,600,226,225,16,117,49,3.1,-9.5,7.2,-1.1,-13.8,-13.7,-12.1,-15.0
GHCND:USC00353402,GOVERNMENT CAMP OR US,20100414,0.28,18,2.5,0.66,46,7.4,1.40,107,10.2,9.35,32.0,86.54,335.8,638,501,183,53,714,486,658,588,221,220,16,115,48,3.1,-9.4,7.3,-1.1,-13.8,-13.7,-12.1,-15.0
GHCND:USC00353402,GOVERNMENT CAMP OR US,20100415,0.28,18,2.5,0.66,46,7.4,1.40,104,10.2,9.98,34.0,87.17,337.8,636,498,181,52,701,474,645,576,217,215,15,112,46,3.2,-9.4,7.4,-1.0,-13.8,-13.7,-12.1,-15.0
GHCND:USC00353402,GOVERNMENT CAMP OR US,20100416,0.28,15,2.5,0.66,46,7.1,1.40,102,10.2,10.59,35.8,87.78,339.6,634,496,179,51,688,462,632,563,212,210,15,109,45,3.3,-9.3,7.5,-0.9,-13.8,-13.6,-12.0,-15.0
GHCND:USC00353402,GOVERNMENT CAMP OR US,20100417,0.28,15,2.5,0.66,43,7.1,1.37,99,10.2,11.20,37.8,88.39,341.6,631,493,177,50,675,449,618,549,207,206,14,107,43,3.3,-9.3,7.6,-0.9,-13.7,-13.6,-12.0,-15.0
GHCND:USC00353402,GOVERNMENT CAMP OR US,20100418,0.28,15,2.5,0.66,43,7.1,1.37,97,10.2,11.81,39.4,89.00,343.2,628,491,175,49,661,437,603,536,203,201,14,104,42,3.4,-9.2,7.7,-0.9,-13.7,-13.6,-11.9,-14.9
GHCND:USC00353402,GOVERNMENT CAMP OR US,20100419,0.28,15,2.5,0.66,43,6.9,1.37,94,10.2,12.42,41.1,89.61,344.9,625,488,174,48,647,424,588,521,198,196,13,101,40,3.5,-9.1,7.8,-0.8,-13.7,-13.6,-11.9,-14.9
GHCND:USC00353402,GOVERNMENT CAMP OR US,20100420,0.28,15,2.5,0.66,41,6.9,1.37,91,10.2,13.03,42.7,90.22,346.5,622,485,172,47,632,411,573,507,192,190,13,98,38,3.6,-9.1,7.9,-0.8,-13.7,-13.6,-11.9,-14.9
GHCND:USC00353402,GOVERNMENT CAMP OR US,20100421,0.28,15,2.5,0.66,41,6.9,1.35,91,10.2,13.64,44.5,90.83,348.2,619,483,170,46,617,398,557,492,187,185,12,95,37,3.7,-9.0,8.1,-0.7,-13.7,-13.6,-11.9,-14.9
GHCND:USC00353402,GOVERNMENT CAMP OR US,20100422,0.28,15,2.5,0.66,41,6.6,1.35,89,10.2,14.25,46.0,91.44,349.8,616,480,168,45,601,385,541,476,181,179,12,92,35,3.8,-8.9,8.2,-0.6,-13.6,-13.6,-11.8,-14.9
GHCND:USC00353402,GOVERNMENT CAMP OR US,20100423,0.28,13,2.5,0.66,41,6.6,1.35,86,9.9,14.83,47.2,92.02,351.0,613,477,167,44,585,372,524,461,176,174,11,89,33,3.9,-8.8,8.4,-0.6,-13.6,-13.5,-11.8,-14.9
GHCND:USC00353402,GOVERNMENT CAMP OR US,20100424,0.28,13,2.5,0.66,38,6.6,1.35,84,9.9,15.42,48.8,92.61,352.6,609,474,165,43,569,359,507,445,171,169,11,86,32,4.0,-8.8,8.5,-0.5,-13.6,-13.5,-11.8,-14.9
GHCND:USC00353402,GOVERNMENT CAMP OR US,20100425,0.28,13,2.5,0.66,38,6.6,1.35,84,9.9,16.00,50.0,93.19,353.8,606,471,163,42,552,346,491,430,166,163,10,83,30,4.1,-8.7,8.7,-0.4,-13.6,-13.5,-11.8,-14.8